This is the latest recevied weather packets stored in our database for station/object K5OBH. If no packets are shown the sender has not sent any weather packets the latest 10 day(s).
| Time | Temp. | Humidity | Pressure | Rain* | Wind** | Luminosity | Snow |
|---|---|---|---|---|---|---|---|
| 1778107742 | 17.78° C | 51% | 1015.6 hPa | 0 mm | - | 269 W/m² | - |
| 1778107439 | 18.33° C | 52% | 1015.3 hPa | 0 mm | - | 282 W/m² | - |
| 1778107135 | 17.78° C | 52% | 1015.3 hPa | 0 mm | - | 298 W/m² | - |
| 1778106831 | 17.78° C | 52% | 1015.2 hPa | 0 mm | - | 311 W/m² | - |
| 1778106528 | 17.22° C | 53% | 1015.3 hPa | 0 mm | - | 328 W/m² | - |
| 1778106224 | 18.33° C | 53% | 1015 hPa | 0 mm | - | 343 W/m² | - |
| 1778105922 | 18.33° C | 53% | 1014.8 hPa | 0 mm | - | 359 W/m² | - |
| 1778105619 | 18.33° C | 53% | 1015 hPa | 0 mm | - | 375 W/m² | - |
| 1778105316 | 17.78° C | 53% | 1015 hPa | 0 mm | - | 392 W/m² | - |
| 1778105012 | 17.78° C | 54% | 1015.4 hPa | 0 mm | - | 405 W/m² | - |
| 1778104709 | 17.78° C | 54% | 1015.1 hPa | 0 mm | - | 419 W/m² | - |
| 1778104404 | 17.78° C | 54% | 1015.1 hPa | 0 mm | - | 435 W/m² | - |
| 1778104100 | 17.78° C | 54% | 1015.3 hPa | 0 mm | - | 445 W/m² | - |
| 1778103797 | 17.78° C | 55% | 1015.3 hPa | 0 mm | - | 463 W/m² | - |
| 1778103496 | 17.78° C | 54% | 1015.2 hPa | 0 mm | - | 143 W/m² | - |
| 1778103192 | 17.22° C | 55% | 1015.1 hPa | 0 mm | - | 509 W/m² | - |
| 1778102890 | 17.78° C | 54% | 1015.4 hPa | 0 mm | - | 515 W/m² | - |
| 1778102585 | 17.78° C | 54% | 1015.5 hPa | 0 mm | - | 187 W/m² | - |
| 1778102281 | 17.78° C | 53% | 1015.5 hPa | 0 mm | - | 563 W/m² | - |
| 1778101977 | 16.67° C | 56% | 1015.5 hPa | 0 mm | - | 384 W/m² | - |
| 1778101675 | 16.67° C | 56% | 1015.8 hPa | 0 mm | - | 702 W/m² | - |
| 1778101371 | 17.78° C | 55% | 1015.5 hPa | 0 mm | - | 268 W/m² | - |
| 1778101068 | 17.78° C | 55% | 1015.6 hPa | 0 mm | - | 761 W/m² | - |
| 1778100764 | 17.22° C | 56% | 1015.7 hPa | 0 mm | - | 776 W/m² | - |
| 1778100461 | 17.22° C | 56% | 1015.5 hPa | 0 mm | - | 321 W/m² | - |
* Rain latest hour (hover to see other rain measurements)
** Current wind speed in m/s (hover to see current wind gust speed)